Albany, NY

3:37 AM EDT on September 21, 2019 (GMT -0400)
Albany International

Weather History for KALB - July, 2019

Change the Weather History Date:

Saturday, July 20, 2019

  Actual Average Record
Temperature  
Mean Temperature 84 °F 72 °F  
Max Temperature 95 °F 83 °F 97 °F (1991)
Min Temperature 72 °F 62 °F 49 °F (1965)
Degree Days  
Heating Degree Days 0 0  
Month to date heating degree days 0 0  
Since 1 June heating degree days 27 52  
Since 1 July heating degree days 0 0  
Cooling Degree Days 19 7  
Month to date cooling degree days 239 137  
Year to date cooling degree days 389 285  
Since 1 June cooling degree days 367 255  
Growing Degree Days 34 (Base 50)    
Moisture  
Dew Point 72 °F    
Average Humidity 70    
Maximum Humidity 87    
Minimum Humidity 52    
Precipitation  
Precipitation 0.06 in 0.14 in 2.34 in (1945)
Month to date precipitation 1.49 2.66  
Year to date precipitation 22.36 21.23  
Sea Level Pressure  
Sea Level Pressure 29.81 in    
Wind  
Wind Speed 6 mph (SW)    
Max Wind Speed 31 mph    
Max Gust Speed 44 mph    
Visibility 10 miles    
Events Rain , Thunderstorm    
T = Trace of Precipitation, MM = Missing Value Source: NWS Daily Summary

Daily Weather History Graph

Daily Weather History Graph

Search for Another Location

Airport or City:

Astronomy

Jul. 20, 2019 Rise Set
Actual Time 5:34 AM EDT 8:27 PM EDT
Civil Twilight 5:01 AM EDT 9:01 PM EDT
Nautical Twilight 4:18 AM EDT 9:43 PM EDT
Astronomical Twilight 3:29 AM EDT 10:32 PM EDT
Moon 10:49 PM EDT (7/20) 8:59 AM EDT (7/20)
Length of Visible Light 15h 59m
Length of Day
14h 53m
Waning Gibbous, 87% of the Moon is Illuminated
Jul 20
Waning Gibbous
Jul 24
Last Quarter
Jul 31
New
Aug 7
First Quarter
Aug 15
Full

Hourly Weather History & Observations

Time (EDT) Temp. Heat Index Dew Point Humidity Pressure Visibility Wind Dir Wind Speed Gust Speed Precip Events Conditions
12:51 AM 82.0 °F 86.7 °F 72.0 °F 71% 29.82 in 10.0 mi SSW 4.6 mph - N/A   Mostly Cloudy
1:51 AM 80.1 °F 83.8 °F 72.0 °F 76% 29.82 in 10.0 mi Calm Calm - N/A   Mostly Cloudy
2:51 AM 79.0 °F - 72.0 °F 79% 29.82 in 10.0 mi Calm Calm - N/A   Mostly Cloudy
3:51 AM 78.1 °F - 72.0 °F 81% 29.81 in 10.0 mi Calm Calm - N/A   Mostly Cloudy
4:51 AM 77.0 °F - 72.0 °F 84% 29.81 in 10.0 mi Calm Calm - N/A   Mostly Cloudy
5:51 AM 75.9 °F - 71.1 °F 85% 29.83 in 10.0 mi Calm Calm - N/A   Mostly Cloudy
6:03 AM 75.9 °F - 71.1 °F 85% 29.83 in 10.0 mi Calm Calm - N/A   Mostly Cloudy
6:35 AM 79.0 °F - 72.0 °F 79% 29.84 in 10.0 mi Calm Calm - N/A   Mostly Cloudy
6:40 AM 78.8 °F - 71.6 °F 78% 29.85 in 10.0 mi Calm Calm - N/A   Mostly Cloudy
6:51 AM 79.0 °F - 72.0 °F 79% 29.84 in 10.0 mi SSW 4.6 mph - N/A   Mostly Cloudy
7:51 AM 82.0 °F 86.7 °F 72.0 °F 71% 29.85 in 10.0 mi SW 5.8 mph - N/A   Scattered Clouds
8:41 AM 82.9 °F 88.8 °F 73.0 °F 72% 29.85 in 10.0 mi South 5.8 mph - N/A   Mostly Cloudy
8:51 AM 82.9 °F 88.8 °F 73.0 °F 72% 29.85 in 10.0 mi South 5.8 mph - N/A   Mostly Cloudy
9:38 AM 84.9 °F 91.4 °F 73.0 °F 67% 29.84 in 10.0 mi South 3.5 mph - N/A   Mostly Cloudy
9:51 AM 86.0 °F 93.8 °F 73.9 °F 67% 29.83 in 10.0 mi Variable 5.8 mph - N/A   Mostly Cloudy
10:51 AM 88.0 °F 96.5 °F 73.9 °F 63% 29.84 in 10.0 mi West 9.2 mph - N/A   Mostly Cloudy
11:51 AM 88.0 °F 96.5 °F 73.9 °F 63% 29.83 in 10.0 mi West 8.1 mph - N/A   Mostly Cloudy
12:51 PM 89.1 °F 98.0 °F 73.9 °F 61% 29.82 in 10.0 mi WSW 3.5 mph - N/A   Mostly Cloudy
1:51 PM 91.0 °F 100.4 °F 73.9 °F 57% 29.80 in 10.0 mi WSW 9.2 mph - N/A   Mostly Cloudy
2:51 PM 93.0 °F 104.6 °F 75.0 °F 56% 29.78 in 10.0 mi SSW 5.8 mph - N/A   Scattered Clouds
3:51 PM 91.9 °F 101.3 °F 73.9 °F 55% 29.76 in 10.0 mi South 5.8 mph - N/A   Scattered Clouds
4:51 PM 91.9 °F 101.3 °F 73.9 °F 55% 29.75 in 10.0 mi WSW 8.1 mph - N/A   Scattered Clouds
5:51 PM 93.9 °F 104.0 °F 73.9 °F 52% 29.74 in 10.0 mi WSW 8.1 mph - N/A   Mostly Cloudy
6:51 PM 91.9 °F 101.3 °F 73.9 °F 55% 29.75 in 10.0 mi WSW 5.8 mph - N/A   Mostly Cloudy
7:23 PM 90.0 °F 99.0 °F 73.9 °F 59% 29.78 in 10.0 mi West 5.8 mph - N/A Thunderstorm Overcast
7:24 PM 90.0 °F 99.0 °F 73.9 °F 59% 29.78 in 10.0 mi West 5.8 mph - N/A Thunderstorm Thunderstorm
7:51 PM 75.9 °F - 66.9 °F 74% 29.80 in 5.0 mi NNW 21.9 mph 40.3 mph 0.00 in Rain , Thunderstorm Thunderstorms and Rain
8:51 PM 77.0 °F - 68.0 °F 74% 29.83 in 8.0 mi WNW 13.8 mph 24.2 mph 0.05 in Thunderstorm Thunderstorm
9:51 PM 75.9 °F - 68.0 °F 76% 29.82 in 10.0 mi SSE 5.8 mph - 0.01 in Rain , Thunderstorm Light Thunderstorms and Rain
10:23 PM 75.0 °F - 68.0 °F 79% 29.80 in 10.0 mi ESE 3.5 mph - 0.00 in Rain Light Rain
10:51 PM 73.9 °F - 69.1 °F 85% 29.79 in 10.0 mi South 6.9 mph - 0.00 in Rain Light Rain
11:51 PM 75.0 °F - 68.0 °F 79% 29.78 in 10.0 mi Calm Calm - 0.00 in   Mostly Cloudy